Wetterdaten: Donnerstag, 19.09.2013
Datum Zeit Temperatur Luftfeuchte Luftdruck Regen Wind Richtung Richtung Taupunkt Windchill Windben
19.09.2013 00:00 10,4 C 95 % 1008,2 hPa 1,4 l/m 4,2 km/h (1 Bft) S-SO 157 9,6 C 10,6 C 7,9 km/h (2 Bft)
19.09.2013 00:05 10,3 C 95 % 1008,2 hPa 0,7 l/m 4,3 km/h (1 Bft) O-NO 67 9,5 C 10,6 C 5,5 km/h (1 Bft)
19.09.2013 00:10 10,3 C 95 % 1008,2 hPa 0,7 l/m 6,8 km/h (2 Bft) S 180 9,5 C 9,6 C 12,2 km/h (2 Bft)
19.09.2013 00:15 10,4 C 95 % 1008,2 hPa 1,4 l/m 10,3 km/h (2 Bft) W-SW 247 9,6 C 6,6 C 25,4 km/h (4 Bft)
19.09.2013 00:20 10,4 C 95 % 1009,2 hPa 1,4 l/m 10,6 km/h (2 Bft) S 180 9,6 C 6,4 C 21,6 km/h (4 Bft)
19.09.2013 00:25 10,1 C 95 % 1009,2 hPa 2,1 l/m 9,3 km/h (2 Bft) S-SW 202 9,3 C 7,0 C 15,8 km/h (3 Bft)
19.09.2013 00:30 9,8 C 95 % 1009,2 hPa 0,7 l/m 9,3 km/h (2 Bft) S-SW 202 9,0 C 6,9 C 9,0 km/h (2 Bft)
19.09.2013 00:35 9,6 C 95 % 1009,2 hPa 0,0 l/m 8,4 km/h (2 Bft) S 180 8,8 C 7,3 C 9,2 km/h (2 Bft)
19.09.2013 00:40 9,6 C 95 % 1009,3 hPa 0,7 l/m 7,2 km/h (2 Bft) S 180 8,8 C 8,3 C 6,8 km/h (2 Bft)
19.09.2013 00:45 9,5 C 95 % 1009,3 hPa 0,0 l/m 6,9 km/h (2 Bft) S 180 8,7 C 8,4 C 5,8 km/h (2 Bft)
19.09.2013 00:50 9,4 C 95 % 1009,3 hPa 0,0 l/m 6,3 km/h (2 Bft) W 270 8,6 C 8,9 C 6,4 km/h (2 Bft)
19.09.2013 00:55 9,3 C 95 % 1009,3 hPa 0,7 l/m 6,0 km/h (2 Bft) S 180 8,5 C 8,9 C 8,2 km/h (2 Bft)
19.09.2013 01:00 9,2 C 95 % 1009,8 hPa 0,0 l/m 6,1 km/h (2 Bft) S 180 8,4 C 8,7 C 6,6 km/h (2 Bft)
19.09.2013 01:05 9,0 C 95 % 1009,8 hPa 0,0 l/m 6,8 km/h (2 Bft) SW 225 8,2 C 8,1 C 13,4 km/h (3 Bft)
19.09.2013 01:10 9,0 C 95 % 1009,8 hPa 0,0 l/m 7,6 km/h (2 Bft) S 180 8,2 C 7,3 C 9,7 km/h (2 Bft)
19.09.2013 01:15 8,8 C 95 % 1009,8 hPa 0,7 l/m 8,4 km/h (2 Bft) S 180 8,0 C 6,4 C 9,8 km/h (2 Bft)
19.09.2013 01:20 8,8 C 95 % 1010,1 hPa 0,7 l/m 7,9 km/h (2 Bft) S-SO 157 8,0 C 6,6 C 6,4 km/h (2 Bft)
19.09.2013 01:25 8,6 C 95 % 1010,1 hPa 0,0 l/m 7,2 km/h (2 Bft) S-SW 202 7,8 C 7,2 C 10,1 km/h (2 Bft)
19.09.2013 01:30 8,6 C 95 % 1010,1 hPa 0,0 l/m 6,6 km/h (2 Bft) W-SW 247 7,8 C 7,8 C 5,8 km/h (2 Bft)
19.09.2013 01:35 8,5 C 95 % 1010,1 hPa 0,7 l/m 6,3 km/h (2 Bft) S-SW 202 7,7 C 7,9 C 15,0 km/h (3 Bft)
19.09.2013 01:40 8,5 C 95 % 1010,0 hPa 0,0 l/m 6,3 km/h (2 Bft) S 180 7,7 C 7,9 C 8,0 km/h (2 Bft)
19.09.2013 01:45 8,3 C 95 % 1010,0 hPa 0,0 l/m 6,6 km/h (2 Bft) W-SW 247 7,5 C 7,6 C 3,2 km/h (1 Bft)
19.09.2013 01:50 8,3 C 95 % 1010,0 hPa 0,7 l/m 5,3 km/h (1 Bft) S 180 7,5 C 7,9 C 6,8 km/h (2 Bft)
19.09.2013 01:55 8,3 C 95 % 1010,0 hPa 0,0 l/m 3,9 km/h (1 Bft) SO 135 7,5 C 8,4 C 2,9 km/h (1 Bft)
19.09.2013 02:00 8,3 C 95 % 1010,2 hPa 0,0 l/m 4,3 km/h (1 Bft) S-SO 157 7,5 C 8,3 C 9,2 km/h (2 Bft)
19.09.2013 02:05 8,2 C 95 % 1010,2 hPa 0,0 l/m 4,3 km/h (1 Bft) S 180 7,4 C 8,2 C 6,4 km/h (2 Bft)
19.09.2013 02:10 8,2 C 95 % 1010,2 hPa 0,7 l/m 4,0 km/h (1 Bft) SW 225 7,4 C 8,3 C 5,0 km/h (1 Bft)
19.09.2013 02:15 8,1 C 95 % 1010,2 hPa 0,0 l/m 4,3 km/h (1 Bft) S 180 7,3 C 8,2 C 4,7 km/h (1 Bft)
19.09.2013 02:20 8,1 C 95 % 1010,3 hPa 0,0 l/m 4,3 km/h (1 Bft) O-NO 67 7,3 C 8,0 C 2,4 km/h (1 Bft)
19.09.2013 02:25 8,2 C 95 % 1010,3 hPa 0,7 l/m 3,5 km/h (1 Bft) S-SO 157 7,4 C 8,4 C 3,7 km/h (1 Bft)
19.09.2013 02:30 8,2 C 95 % 1010,3 hPa 0,0 l/m 3,9 km/h (1 Bft) SO 135 7,4 C 8,3 C 4,3 km/h (1 Bft)
19.09.2013 02:35 8,2 C 95 % 1010,3 hPa 0,0 l/m 3,5 km/h (1 Bft) O-SO 112 7,4 C 8,4 C 4,8 km/h (1 Bft)
19.09.2013 02:40 8,2 C 95 % 1010,5 hPa 0,0 l/m 3,9 km/h (1 Bft) SO 135 7,4 C 8,3 C 4,3 km/h (1 Bft)
19.09.2013 02:45 8,3 C 95 % 1010,5 hPa 0,7 l/m 4,5 km/h (1 Bft) S-SO 157 7,5 C 8,2 C 9,0 km/h (2 Bft)
19.09.2013 02:50 8,3 C 95 % 1010,5 hPa 0,0 l/m 4,3 km/h (1 Bft) SO 135 7,5 C 8,3 C 3,2 km/h (1 Bft)
19.09.2013 02:55 8,3 C 95 % 1010,5 hPa 0,7 l/m 4,3 km/h (1 Bft) S-SO 157 7,5 C 8,3 C 1,8 km/h (1 Bft)
19.09.2013 03:00 8,3 C 95 % 1010,7 hPa 0,0 l/m 4,0 km/h (1 Bft) S 180 7,5 C 8,4 C 3,1 km/h (1 Bft)
19.09.2013 03:05 8,3 C 95 % 1010,7 hPa 0,7 l/m 3,9 km/h (1 Bft) S 180 7,5 C 8,4 C 4,7 km/h (1 Bft)
19.09.2013 03:10 8,3 C 95 % 1010,7 hPa 0,0 l/m 4,7 km/h (1 Bft) O-SO 112 7,5 C 8,2 C 3,9 km/h (1 Bft)
19.09.2013 03:15 8,3 C 95 % 1010,7 hPa 0,0 l/m 5,5 km/h (1 Bft) S-SW 202 7,5 C 7,9 C 5,8 km/h (2 Bft)
19.09.2013 03:20 8,3 C 95 % 1010,9 hPa 0,7 l/m 5,0 km/h (1 Bft) O 90 7,5 C 8,1 C 4,8 km/h (1 Bft)
19.09.2013 03:25 8,3 C 95 % 1010,9 hPa 0,0 l/m 4,5 km/h (1 Bft) S 180 7,5 C 8,2 C 0,0 km/h (0 Bft)
19.09.2013 03:30 8,3 C 95 % 1010,9 hPa 0,0 l/m 3,5 km/h (1 Bft) O 90 7,5 C 8,5 C 3,9 km/h (1 Bft)
19.09.2013 03:35 8,3 C 95 % 1010,9 hPa 0,7 l/m 3,1 km/h (1 Bft) O 90 7,5 C 8,5 C 2,1 km/h (1 Bft)
19.09.2013 03:40 8,3 C 95 % 1011,1 hPa 0,7 l/m 2,4 km/h (1 Bft) O 90 7,5 C 8,5 C 1,8 km/h (1 Bft)
19.09.2013 03:45 8,3 C 95 % 1011,1 hPa 0,0 l/m 1,9 km/h (1 Bft) S-SO 157 7,5 C 8,5 C 3,1 km/h (1 Bft)
19.09.2013 03:50 8,3 C 95 % 1011,1 hPa 0,0 l/m 2,9 km/h (1 Bft) S 180 7,5 C 8,5 C 5,5 km/h (1 Bft)
19.09.2013 03:55 8,3 C 95 % 1011,1 hPa 0,7 l/m 3,9 km/h (1 Bft) NO 45 7,5 C 8,4 C 6,9 km/h (2 Bft)
19.09.2013 04:00 8,3 C 95 % 1011,6 hPa 0,0 l/m 4,7 km/h (1 Bft) W-SW 247 7,5 C 8,2 C 7,1 km/h (2 Bft)
19.09.2013 04:05 7,7 C 96 % 1011,6 hPa 0,7 l/m 5,5 km/h (1 Bft) S-SW 202 7,1 C 7,6 C 8,4 km/h (2 Bft)
19.09.2013 04:10 7,6 C 96 % 1011,6 hPa 0,0 l/m 5,1 km/h (1 Bft) S 180 7,0 C 7,4 C 4,5 km/h (1 Bft)
19.09.2013 04:15 7,5 C 96 % 1011,6 hPa 0,0 l/m 4,0 km/h (1 Bft) S 180 6,9 C 7,6 C 3,7 km/h (1 Bft)
19.09.2013 04:20 7,6 C 96 % 1011,8 hPa 0,7 l/m 3,5 km/h (1 Bft) S 180 7,0 C 7,8 C 2,7 km/h (1 Bft)
19.09.2013 04:25 7,5 C 96 % 1011,8 hPa 0,0 l/m 2,9 km/h (1 Bft) S-SO 157 6,9 C 7,7 C 2,4 km/h (1 Bft)
19.09.2013 04:30 7,6 C 96 % 1011,8 hPa 0,7 l/m 2,3 km/h (1 Bft) SO 135 7,0 C 7,7 C 0,0 km/h (0 Bft)
19.09.2013 04:35 7,5 C 96 % 1011,8 hPa 0,0 l/m 1,9 km/h (1 Bft) S-SW 202 6,9 C 7,7 C 2,7 km/h (1 Bft)
19.09.2013 04:40 7,5 C 96 % 1011,9 hPa 0,0 l/m 2,9 km/h (1 Bft) SO 135 6,9 C 7,7 C 0,0 km/h (0 Bft)
19.09.2013 04:45 7,4 C 96 % 1011,9 hPa 0,0 l/m 2,6 km/h (1 Bft) SO 135 6,8 C 7,7 C 2,3 km/h (1 Bft)
19.09.2013 04:50 7,4 C 96 % 1011,9 hPa 0,7 l/m 2,3 km/h (1 Bft) S-SO 157 6,8 C 7,6 C 3,9 km/h (1 Bft)
19.09.2013 04:55 7,4 C 96 % 1011,9 hPa 0,7 l/m 3,1 km/h (1 Bft) NO 45 6,8 C 7,6 C 1,6 km/h (1 Bft)
19.09.2013 05:00 7,3 C 96 % 1012,0 hPa 0,0 l/m 2,9 km/h (1 Bft) O-SO 112 6,7 C 7,6 C 2,4 km/h (1 Bft)
19.09.2013 05:05 7,3 C 96 % 1012,0 hPa 0,0 l/m 1,9 km/h (1 Bft) N-NO 22 6,7 C 7,6 C 0,0 km/h (0 Bft)
19.09.2013 05:10 7,3 C 96 % 1012,0 hPa 0,0 l/m 1,8 km/h (1 Bft) NO 45 6,7 C 7,5 C 2,9 km/h (1 Bft)
19.09.2013 05:15 7,3 C 96 % 1012,0 hPa 0,0 l/m 1,3 km/h (1 Bft) O 90 6,7 C 7,5 C 3,1 km/h (1 Bft)
19.09.2013 05:20 7,3 C 96 % 1012,4 hPa 0,0 l/m 0,8 km/h (0 Bft) S-SW 202 6,7 C 7,5 C 1,9 km/h (1 Bft)
19.09.2013 05:25 7,3 C 96 % 1012,4 hPa 0,0 l/m 1,4 km/h (1 Bft) O 90 6,7 C 7,5 C 3,2 km/h (1 Bft)
19.09.2013 05:30 7,3 C 96 % 1012,4 hPa 0,0 l/m 2,1 km/h (1 Bft) O 90 6,7 C 7,5 C 2,3 km/h (1 Bft)
19.09.2013 05:35 7,3 C 96 % 1012,4 hPa 0,7 l/m 2,7 km/h (1 Bft) O-SO 112 6,7 C 7,5 C 2,7 km/h (1 Bft)
19.09.2013 05:40 7,3 C 96 % 1012,3 hPa 0,0 l/m 2,4 km/h (1 Bft) O-NO 67 6,7 C 7,5 C 2,4 km/h (1 Bft)
19.09.2013 05:45 7,3 C 96 % 1012,3 hPa 0,0 l/m 2,1 km/h (1 Bft) O-NO 67 6,7 C 7,5 C 2,7 km/h (1 Bft)
19.09.2013 05:50 7,3 C 96 % 1012,3 hPa 0,7 l/m 2,4 km/h (1 Bft) O 90 6,7 C 7,5 C 2,6 km/h (1 Bft)
19.09.2013 05:55 7,3 C 96 % 1012,3 hPa 0,0 l/m 2,9 km/h (1 Bft) NO 45 6,7 C 7,5 C 2,6 km/h (1 Bft)
19.09.2013 06:00 7,3 C 96 % 1012,6 hPa 0,0 l/m 2,4 km/h (1 Bft) S-SO 157 6,7 C 7,5 C 0,0 km/h (0 Bft)
19.09.2013 06:05 7,3 C 96 % 1012,6 hPa 0,0 l/m 1,6 km/h (1 Bft) O 90 6,7 C 7,6 C 0,0 km/h (0 Bft)
19.09.2013 06:10 7,3 C 96 % 1012,6 hPa 0,0 l/m 1,0 km/h (0 Bft) NO 45 6,7 C 7,6 C 0,0 km/h (0 Bft)
19.09.2013 06:15 7,3 C 96 % 1012,6 hPa 0,7 l/m 0,6 km/h (0 Bft) O-SO 112 6,7 C 7,6 C 0,0 km/h (0 Bft)
19.09.2013 06:20 7,4 C 96 % 1012,8 hPa 0,0 l/m 1,4 km/h (1 Bft) S 180 6,8 C 7,6 C 9,3 km/h (2 Bft)
19.09.2013 06:25 7,4 C 96 % 1012,8 hPa 0,0 l/m 3,2 km/h (1 Bft) S-SO 157 6,8 C 7,6 C 0,0 km/h (0 Bft)
19.09.2013 06:30 7,4 C 96 % 1012,8 hPa 0,7 l/m 3,4 km/h (1 Bft) S 180 6,8 C 7,6 C 2,3 km/h (1 Bft)
19.09.2013 06:35 7,4 C 96 % 1012,8 hPa 0,0 l/m 1,9 km/h (1 Bft) SO 135 6,8 C 7,6 C 3,2 km/h (1 Bft)
19.09.2013 06:40 7,3 C 96 % 1013,3 hPa 0,0 l/m 2,1 km/h (1 Bft) W 270 6,7 C 7,6 C 3,5 km/h (1 Bft)
19.09.2013 06:45 7,2 C 96 % 1013,3 hPa 0,0 l/m 1,6 km/h (1 Bft) O-SO 112 6,6 C 7,6 C 0,0 km/h (0 Bft)
19.09.2013 06:50 7,2 C 96 % 1013,3 hPa 0,0 l/m 2,1 km/h (1 Bft) S 180 6,6 C 7,5 C 7,9 km/h (2 Bft)
19.09.2013 06:55 6,9 C 96 % 1013,3 hPa 0,7 l/m 4,8 km/h (1 Bft) S-SO 157 6,3 C 6,7 C 10,1 km/h (2 Bft)
19.09.2013 07:00 6,9 C 96 % 1013,7 hPa 0,0 l/m 5,8 km/h (2 Bft) S-SO 157 6,3 C 6,2 C 7,4 km/h (2 Bft)
19.09.2013 07:05 6,7 C 96 % 1013,7 hPa 0,0 l/m 4,0 km/h (1 Bft) S 180 6,1 C 6,6 C 7,6 km/h (2 Bft)
19.09.2013 07:10 6,7 C 96 % 1013,7 hPa 0,0 l/m 2,7 km/h (1 Bft) O-SO 112 6,1 C 6,9 C 0,0 km/h (0 Bft)
19.09.2013 07:15 6,8 C 96 % 1013,7 hPa 0,0 l/m 1,8 km/h (1 Bft) O-NO 67 6,2 C 6,9 C 0,0 km/h (0 Bft)
19.09.2013 07:20 6,8 C 96 % 1013,7 hPa 0,7 l/m 1,0 km/h (0 Bft) S-SO 157 6,2 C 6,9 C 2,4 km/h (1 Bft)
19.09.2013 07:25 6,8 C 96 % 1013,7 hPa 0,0 l/m 1,0 km/h (0 Bft) NO 45 6,2 C 6,9 C 2,3 km/h (1 Bft)
19.09.2013 07:30 6,7 C 96 % 1013,7 hPa 0,0 l/m 1,6 km/h (1 Bft) S 180 6,1 C 6,9 C 3,5 km/h (1 Bft)
19.09.2013 07:35 6,7 C 96 % 1013,7 hPa 0,0 l/m 2,4 km/h (1 Bft) O-SO 112 6,1 C 6,9 C 3,5 km/h (1 Bft)
19.09.2013 07:40 6,7 C 96 % 1014,0 hPa 0,0 l/m 2,9 km/h (1 Bft) O 90 6,1 C 6,9 C 6,6 km/h (2 Bft)
19.09.2013 07:45 6,7 C 96 % 1014,0 hPa 0,0 l/m 3,9 km/h (1 Bft) S-SW 202 6,1 C 6,7 C 5,6 km/h (1 Bft)
19.09.2013 07:50 6,6 C 96 % 1014,0 hPa 0,0 l/m 3,9 km/h (1 Bft) SO 135 6,0 C 6,6 C 0,0 km/h (0 Bft)
19.09.2013 07:55 6,5 C 96 % 1014,0 hPa 0,0 l/m 4,0 km/h (1 Bft) SO 135 5,9 C 6,4 C 6,3 km/h (2 Bft)
19.09.2013 08:00 6,5 C 96 % 1014,5 hPa 0,7 l/m 3,5 km/h (1 Bft) N 360 5,9 C 6,7 C 3,2 km/h (1 Bft)
19.09.2013 08:05 6,6 C 96 % 1014,5 hPa 0,0 l/m 3,9 km/h (1 Bft) S-SO 157 6,0 C 6,5 C 4,5 km/h (1 Bft)
19.09.2013 08:10 6,6 C 96 % 1014,5 hPa 0,0 l/m 4,0 km/h (1 Bft) S 180 6,0 C 6,4 C 5,8 km/h (2 Bft)
19.09.2013 08:15 6,4 C 96 % 1014,5 hPa 0,0 l/m 4,2 km/h (1 Bft) S 180 5,8 C 6,3 C 6,4 km/h (2 Bft)
19.09.2013 08:20 6,4 C 96 % 1014,9 hPa 0,0 l/m 4,3 km/h (1 Bft) SO 135 5,8 C 6,3 C 4,8 km/h (1 Bft)
19.09.2013 08:25 6,4 C 96 % 1014,9 hPa 0,7 l/m 5,1 km/h (1 Bft) SO 135 5,8 C 6,0 C 6,3 km/h (2 Bft)
19.09.2013 08:30 6,4 C 96 % 1014,9 hPa 0,0 l/m 4,7 km/h (1 Bft) O 90 5,8 C 6,2 C 5,6 km/h (1 Bft)
19.09.2013 08:35 6,4 C 96 % 1014,9 hPa 0,0 l/m 3,7 km/h (1 Bft) S-SO 157 5,8 C 6,6 C 3,4 km/h (1 Bft)
19.09.2013 08:40 6,4 C 96 % 1014,9 hPa 0,7 l/m 3,4 km/h (1 Bft) O 90 5,8 C 6,7 C 3,5 km/h (1 Bft)
19.09.2013 08:45 6,5 C 96 % 1014,9 hPa 0,0 l/m 1,8 km/h (1 Bft) O-NO 67 5,9 C 6,7 C 0,0 km/h (0 Bft)
19.09.2013 08:50 6,7 C 96 % 1014,9 hPa 0,0 l/m 1,0 km/h (0 Bft) O 90 6,1 C 6,8 C 2,7 km/h (1 Bft)
19.09.2013 08:55 6,9 C 96 % 1014,9 hPa 0,0 l/m 2,1 km/h (1 Bft) S-SO 157 6,3 C 6,9 C 5,3 km/h (1 Bft)
19.09.2013 09:00 6,9 C 96 % 1015,2 hPa 0,0 l/m 4,0 km/h (1 Bft) O-SO 112 6,3 C 6,7 C 5,5 km/h (1 Bft)
19.09.2013 09:05 7,2 C 96 % 1015,2 hPa 0,0 l/m 4,8 km/h (1 Bft) S 180 6,6 C 6,7 C 5,1 km/h (1 Bft)
19.09.2013 09:10 7,4 C 96 % 1015,2 hPa 0,0 l/m 4,7 km/h (1 Bft) S-SO 157 6,8 C 6,9 C 7,7 km/h (2 Bft)
19.09.2013 09:15 7,2 C 96 % 1015,2 hPa 0,0 l/m 4,2 km/h (1 Bft) S 180 6,6 C 7,2 C 3,9 km/h (1 Bft)
19.09.2013 09:20 7,0 C 96 % 1015,3 hPa 0,7 l/m 4,0 km/h (1 Bft) O-SO 112 6,4 C 7,2 C 4,0 km/h (1 Bft)
19.09.2013 09:25 7,0 C 96 % 1015,3 hPa 0,0 l/m 4,0 km/h (1 Bft) S-SW 202 6,4 C 7,0 C 6,4 km/h (2 Bft)
19.09.2013 09:30 7,0 C 96 % 1015,3 hPa 0,0 l/m 4,5 km/h (1 Bft) SO 135 6,4 C 6,8 C 6,1 km/h (2 Bft)
19.09.2013 09:35 6,9 C 96 % 1015,3 hPa 0,0 l/m 5,5 km/h (1 Bft) SO 135 6,3 C 6,2 C 5,8 km/h (2 Bft)
19.09.2013 09:40 6,9 C 96 % 1015,6 hPa 0,0 l/m 5,0 km/h (1 Bft) S 180 6,3 C 6,3 C 10,8 km/h (2 Bft)
19.09.2013 09:45 6,8 C 96 % 1015,6 hPa 0,0 l/m 4,3 km/h (1 Bft) S-SO 157 6,2 C 6,6 C 4,3 km/h (1 Bft)
19.09.2013 09:50 6,9 C 96 % 1015,6 hPa 0,0 l/m 4,7 km/h (1 Bft) S-SO 157 6,3 C 6,4 C 10,1 km/h (2 Bft)
19.09.2013 09:55 6,8 C 96 % 1015,6 hPa 0,0 l/m 5,0 km/h (1 Bft) S-SO 157 6,2 C 6,3 C 11,1 km/h (2 Bft)
19.09.2013 10:00 6,7 C 96 % 1016,2 hPa 0,0 l/m 5,1 km/h (1 Bft) S 180 6,1 C 6,2 C 3,7 km/h (1 Bft)
19.09.2013 10:05 6,7 C 96 % 1016,2 hPa 0,0 l/m 4,5 km/h (1 Bft) SO 135 6,1 C 6,4 C 4,2 km/h (1 Bft)
19.09.2013 10:10 6,7 C 96 % 1016,2 hPa 0,0 l/m 4,5 km/h (1 Bft) S 180 6,1 C 6,4 C 6,8 km/h (2 Bft)
19.09.2013 10:15 6,7 C 96 % 1016,2 hPa 0,0 l/m 3,9 km/h (1 Bft) S 180 6,1 C 6,6 C 5,0 km/h (1 Bft)
19.09.2013 10:20 6,7 C 96 % 1016,2 hPa 0,0 l/m 2,6 km/h (1 Bft) W-NW 292 6,1 C 6,9 C 3,2 km/h (1 Bft)
19.09.2013 10:25 6,7 C 96 % 1016,2 hPa 0,0 l/m 3,1 km/h (1 Bft) S-SO 157 6,1 C 6,9 C 5,8 km/h (2 Bft)
19.09.2013 10:30 6,9 C 96 % 1016,2 hPa 0,0 l/m 3,7 km/h (1 Bft) S 180 6,3 C 6,8 C 4,3 km/h (1 Bft)
19.09.2013 10:35 7,2 C 96 % 1016,2 hPa 0,0 l/m 3,4 km/h (1 Bft) W 270 6,6 C 7,3 C 6,4 km/h (2 Bft)
19.09.2013 10:40 7,4 C 96 % 1016,4 hPa 0,0 l/m 4,0 km/h (1 Bft) S 180 6,8 C 7,3 C 2,6 km/h (1 Bft)
19.09.2013 10:45 8,0 C 96 % 1016,4 hPa 0,0 l/m 4,8 km/h (1 Bft) S-SO 157 7,4 C 7,6 C 4,0 km/h (1 Bft)
19.09.2013 10:50 8,5 C 96 % 1016,4 hPa 0,0 l/m 4,3 km/h (1 Bft) S 180 7,9 C 8,3 C 4,0 km/h (1 Bft)
19.09.2013 10:55 10,8 C 95 % 1016,4 hPa 0,0 l/m 3,9 km/h (1 Bft) O 90 10,0 C 9,6 C 6,6 km/h (2 Bft)
19.09.2013 11:00 11,5 C 95 % 1017,2 hPa 0,0 l/m 3,7 km/h (1 Bft) S 180 10,7 C 10,6 C 3,9 km/h (1 Bft)
19.09.2013 11:05 9,4 C 94 % 1017,2 hPa 0,0 l/m 4,7 km/h (1 Bft) S-SO 157 8,5 C 10,8 C 10,0 km/h (2 Bft)
19.09.2013 11:10 8,4 C 94 % 1017,2 hPa 0,0 l/m 5,8 km/h (2 Bft) S-SO 157 7,5 C 9,9 C 8,2 km/h (2 Bft)
19.09.2013 11:15 8,0 C 94 % 1017,2 hPa 0,0 l/m 6,4 km/h (2 Bft) SO 135 7,1 C 8,6 C 4,8 km/h (1 Bft)
19.09.2013 11:20 8,3 C 94 % 1016,8 hPa 0,0 l/m 4,0 km/h (1 Bft) SO 135 7,4 C 9,3 C 2,3 km/h (1 Bft)
19.09.2013 11:25 11,5 C 92 % 1016,8 hPa 0,0 l/m 3,1 km/h (1 Bft) SO 135 10,2 C 10,8 C 8,0 km/h (2 Bft)
19.09.2013 11:30 11,9 C 89 % 1016,8 hPa 0,0 l/m 5,0 km/h (1 Bft) S 180 10,1 C 11,7 C 7,4 km/h (2 Bft)
19.09.2013 11:35 12,5 C 79 % 1016,8 hPa 0,0 l/m 6,9 km/h (2 Bft) SO 135 9,0 C 12,4 C 10,1 km/h (2 Bft)
19.09.2013 11:40 12,6 C 81 % 1017,7 hPa 0,0 l/m 7,1 km/h (2 Bft) S 180 9,4 C 12,9 C 10,0 km/h (2 Bft)
19.09.2013 11:45 13,0 C 77 % 1017,7 hPa 0,0 l/m 7,9 km/h (2 Bft) S-SO 157 9,1 C 12,9 C 10,6 km/h (2 Bft)
19.09.2013 11:50 12,1 C 76 % 1017,7 hPa 0,0 l/m 7,2 km/h (2 Bft) W-SW 247 8,0 C 13,3 C 5,1 km/h (1 Bft)
19.09.2013 11:55 13,0 C 78 % 1017,7 hPa 0,0 l/m 7,2 km/h (2 Bft) S 180 9,3 C 13,3 C 5,5 km/h (1 Bft)
19.09.2013 12:00 13,4 C 77 % 1017,9 hPa 0,0 l/m 6,6 km/h (2 Bft) S 180 9,5 C 14,5 C 8,4 km/h (2 Bft)
19.09.2013 12:05 13,2 C 77 % 1017,9 hPa 0,0 l/m 6,3 km/h (2 Bft) S-SO 157 9,3 C 14,8 C 5,6 km/h (1 Bft)
19.09.2013 12:10 12,3 C 77 % 1017,9 hPa 0,0 l/m 6,1 km/h (2 Bft) W 270 8,4 C 15,2 C 4,8 km/h (1 Bft)
19.09.2013 12:15 11,2 C 81 % 1017,9 hPa 0,0 l/m 6,4 km/h (2 Bft) S 180 8,1 C 13,7 C 6,8 km/h (2 Bft)
19.09.2013 12:20 11,8 C 80 % 1017,9 hPa 0,0 l/m 6,8 km/h (2 Bft) S-SO 157 8,5 C 13,2 C 9,8 km/h (2 Bft)
19.09.2013 12:25 13,4 C 79 % 1017,9 hPa 0,0 l/m 6,3 km/h (2 Bft) W-SW 247 9,8 C 14,5 C 4,3 km/h (1 Bft)
19.09.2013 12:30 12,3 C 79 % 1017,9 hPa 0,0 l/m 5,3 km/h (1 Bft) SW 225 8,8 C 15,1 C 11,1 km/h (2 Bft)
19.09.2013 12:35 11,9 C 83 % 1017,9 hPa 0,0 l/m 5,3 km/h (1 Bft) S-SW 202 9,1 C 14,2 C 4,5 km/h (1 Bft)
19.09.2013 12:40 12,3 C 83 % 1018,1 hPa 0,0 l/m 5,5 km/h (1 Bft) S-SO 157 9,5 C 14,3 C 4,8 km/h (1 Bft)
19.09.2013 12:45 11,3 C 84 % 1018,1 hPa 0,0 l/m 5,5 km/h (1 Bft) SW 225 8,7 C 14,3 C 6,4 km/h (2 Bft)
19.09.2013 12:50 11,0 C 84 % 1018,1 hPa 0,0 l/m 5,3 km/h (1 Bft) S-SO 157 8,4 C 14,2 C 2,7 km/h (1 Bft)
19.09.2013 12:55 10,7 C 85 % 1018,1 hPa 0,0 l/m 3,5 km/h (1 Bft) S-SO 157 8,3 C 13,7 C 5,0 km/h (1 Bft)
19.09.2013 13:00 10,7 C 86 % 1017,9 hPa 0,0 l/m 4,0 km/h (1 Bft) S-SO 157 8,5 C 13,0 C 11,6 km/h (2 Bft)
19.09.2013 13:05 12,0 C 85 % 1017,9 hPa 0,0 l/m 4,3 km/h (1 Bft) S 180 9,6 C 13,6 C 5,1 km/h (1 Bft)
19.09.2013 13:10 11,6 C 81 % 1017,9 hPa 0,0 l/m 5,5 km/h (1 Bft) O-SO 112 8,5 C 14,6 C 9,0 km/h (2 Bft)
19.09.2013 13:15 12,2 C 85 % 1017,9 hPa 0,0 l/m 6,0 km/h (2 Bft) S 180 9,8 C 15,7 C 6,1 km/h (2 Bft)
19.09.2013 13:20 12,4 C 85 % 1018,1 hPa 0,0 l/m 4,8 km/h (1 Bft) O-SO 112 9,9 C 15,6 C 2,6 km/h (1 Bft)
19.09.2013 13:25 12,2 C 83 % 1018,1 hPa 0,0 l/m 5,0 km/h (1 Bft) S 180 9,4 C 14,6 C 3,9 km/h (1 Bft)
19.09.2013 13:30 12,3 C 83 % 1018,1 hPa 0,0 l/m 5,0 km/h (1 Bft) O 90 9,5 C 14,1 C 4,2 km/h (1 Bft)
19.09.2013 13:35 11,7 C 78 % 1018,1 hPa 0,0 l/m 5,6 km/h (1 Bft) S-SW 202 8,0 C 13,5 C 7,9 km/h (2 Bft)
19.09.2013 13:40 11,7 C 79 % 1018,0 hPa 0,0 l/m 5,5 km/h (1 Bft) S 180 8,2 C 13,1 C 6,8 km/h (2 Bft)
19.09.2013 13:45 12,2 C 83 % 1018,0 hPa 0,0 l/m 5,3 km/h (1 Bft) S-SO 157 9,4 C 13,0 C 8,5 km/h (2 Bft)
19.09.2013 13:50 12,0 C 79 % 1018,0 hPa 0,0 l/m 5,6 km/h (1 Bft) S 180 8,5 C 13,0 C 8,9 km/h (2 Bft)
19.09.2013 13:55 12,6 C 81 % 1018,0 hPa 0,0 l/m 5,8 km/h (2 Bft) S-SW 202 9,4 C 13,3 C 4,7 km/h (1 Bft)
19.09.2013 14:00 12,6 C 81 % 1018,1 hPa 0,0 l/m 4,3 km/h (1 Bft) S 180 9,4 C 13,7 C 1,8 km/h (1 Bft)
19.09.2013 14:05 12,7 C 79 % 1018,1 hPa 0,0 l/m 3,9 km/h (1 Bft) S-SW 202 9,2 C 14,1 C 8,5 km/h (2 Bft)
19.09.2013 14:10 12,5 C 80 % 1018,1 hPa 0,0 l/m 3,9 km/h (1 Bft) S-SW 202 9,1 C 13,9 C 4,0 km/h (1 Bft)
19.09.2013 14:15 12,1 C 78 % 1018,1 hPa 0,0 l/m 3,7 km/h (1 Bft) S-SO 157 8,4 C 13,7 C 3,9 km/h (1 Bft)
19.09.2013 14:20 12,0 C 78 % 1018,0 hPa 0,0 l/m 3,5 km/h (1 Bft) S-SW 202 8,3 C 13,5 C 7,2 km/h (2 Bft)
19.09.2013 14:25 12,8 C 77 % 1018,0 hPa 0,0 l/m 3,2 km/h (1 Bft) S 180 8,9 C 13,9 C 0,0 km/h (0 Bft)
19.09.2013 14:30 13,8 C 70 % 1018,0 hPa 0,0 l/m 3,2 km/h (1 Bft) W-SW 247 8,4 C 14,9 C 6,0 km/h (2 Bft)
19.09.2013 14:35 13,5 C 66 % 1018,0 hPa 0,0 l/m 4,7 km/h (1 Bft) S 180 7,3 C 15,8 C 11,3 km/h (2 Bft)
19.09.2013 14:40 13,6 C 69 % 1018,0 hPa 0,0 l/m 6,0 km/h (2 Bft) W-SW 247 8,0 C 15,5 C 6,9 km/h (2 Bft)
19.09.2013 14:45 13,1 C 61 % 1018,0 hPa 0,0 l/m 6,9 km/h (2 Bft) S-SO 157 5,8 C 14,7 C 8,5 km/h (2 Bft)
19.09.2013 14:50 13,0 C 58 % 1018,0 hPa 0,0 l/m 7,1 km/h (2 Bft) S 180 4,9 C 14,3 C 8,9 km/h (2 Bft)
19.09.2013 14:55 12,8 C 62 % 1018,0 hPa 0,0 l/m 6,4 km/h (2 Bft) S-SW 202 5,7 C 14,4 C 2,7 km/h (1 Bft)
19.09.2013 15:00 12,7 C 60 % 1017,9 hPa 0,0 l/m 6,3 km/h (2 Bft) S-SW 202 5,1 C 14,4 C 6,8 km/h (2 Bft)
19.09.2013 15:05 12,2 C 63 % 1017,9 hPa 0,0 l/m 5,1 km/h (1 Bft) S 180 5,4 C 14,6 C 5,5 km/h (1 Bft)
19.09.2013 15:10 12,1 C 63 % 1017,9 hPa 0,0 l/m 5,3 km/h (1 Bft) S-SO 157 5,3 C 14,9 C 7,7 km/h (2 Bft)
19.09.2013 15:15 12,1 C 61 % 1017,9 hPa 0,0 l/m 5,6 km/h (1 Bft) S 180 4,8 C 15,4 C 6,9 km/h (2 Bft)
19.09.2013 15:20 12,0 C 61 % 1017,9 hPa 0,0 l/m 5,6 km/h (1 Bft) S-SO 157 4,7 C 15,2 C 3,9 km/h (1 Bft)
19.09.2013 15:25 12,8 C 65 % 1017,9 hPa 0,0 l/m 4,2 km/h (1 Bft) S-SO 157 6,4 C 14,8 C 0,0 km/h (0 Bft)
19.09.2013 15:30 13,2 C 64 % 1017,9 hPa 0,0 l/m 3,7 km/h (1 Bft) S-SO 157 6,5 C 15,0 C 6,8 km/h (2 Bft)
19.09.2013 15:35 13,1 C 65 % 1017,9 hPa 0,0 l/m 3,7 km/h (1 Bft) O 90 6,7 C 14,9 C 1,8 km/h (1 Bft)
19.09.2013 15:40 13,0 C 63 % 1017,8 hPa 0,0 l/m 3,9 km/h (1 Bft) S 180 6,1 C 14,9 C 7,6 km/h (2 Bft)
19.09.2013 15:45 13,0 C 63 % 1017,8 hPa 0,0 l/m 2,9 km/h (1 Bft) S 180 6,1 C 14,6 C 4,5 km/h (1 Bft)
19.09.2013 15:50 13,0 C 60 % 1017,8 hPa 0,0 l/m 3,9 km/h (1 Bft) NW 315 5,4 C 14,9 C 6,6 km/h (2 Bft)
19.09.2013 15:55 13,5 C 61 % 1017,8 hPa 0,0 l/m 4,3 km/h (1 Bft) SO 135 6,1 C 15,1 C 6,3 km/h (2 Bft)
19.09.2013 16:00 13,4 C 60 % 1017,9 hPa 0,0 l/m 3,9 km/h (1 Bft) W-SW 247 5,8 C 16,0 C 2,9 km/h (1 Bft)
19.09.2013 16:05 12,8 C 64 % 1017,9 hPa 0,0 l/m 3,1 km/h (1 Bft) S-SO 157 6,2 C 15,5 C 3,5 km/h (1 Bft)
19.09.2013 16:10 12,7 C 65 % 1017,9 hPa 0,0 l/m 3,1 km/h (1 Bft) S 180 6,3 C 15,8 C 4,0 km/h (1 Bft)
19.09.2013 16:15 12,2 C 63 % 1017,9 hPa 0,0 l/m 4,0 km/h (1 Bft) SO 135 5,4 C 17,0 C 5,0 km/h (1 Bft)
19.09.2013 16:20 12,1 C 61 % 1017,2 hPa 0,0 l/m 4,8 km/h (1 Bft) S 180 4,8 C 16,5 C 8,0 km/h (2 Bft)
19.09.2013 16:25 12,8 C 57 % 1017,2 hPa 0,0 l/m 6,3 km/h (2 Bft) S 180 4,5 C 16,7 C 6,9 km/h (2 Bft)
19.09.2013 16:30 13,0 C 59 % 1017,2 hPa 0,0 l/m 6,6 km/h (2 Bft) S-SO 157 5,2 C 16,6 C 6,8 km/h (2 Bft)
19.09.2013 16:35 12,9 C 58 % 1017,2 hPa 0,0 l/m 6,6 km/h (2 Bft) S 180 4,8 C 16,6 C 11,3 km/h (2 Bft)
19.09.2013 16:40 12,9 C 56 % 1017,4 hPa 0,0 l/m 6,6 km/h (2 Bft) S 180 4,3 C 16,4 C 4,0 km/h (1 Bft)
19.09.2013 16:45 12,9 C 59 % 1017,4 hPa 0,0 l/m 6,4 km/h (2 Bft) S-SO 157 5,1 C 15,7 C 7,2 km/h (2 Bft)
19.09.2013 16:50 13,0 C 59 % 1017,4 hPa 0,0 l/m 5,1 km/h (1 Bft) S 180 5,2 C 15,6 C 7,1 km/h (2 Bft)
19.09.2013 16:55 12,4 C 59 % 1017,4 hPa 0,0 l/m 3,5 km/h (1 Bft) S 180 4,6 C 15,4 C 3,9 km/h (1 Bft)
19.09.2013 17:00 12,3 C 61 % 1017,4 hPa 0,0 l/m 3,2 km/h (1 Bft) O-SO 112 5,0 C 14,9 C 2,4 km/h (1 Bft)
19.09.2013 17:05 12,0 C 59 % 1017,4 hPa 0,0 l/m 4,7 km/h (1 Bft) S 180 4,2 C 14,3 C 6,4 km/h (2 Bft)
19.09.2013 17:10 11,9 C 62 % 1017,4 hPa 0,0 l/m 4,7 km/h (1 Bft) SO 135 4,9 C 14,0 C 3,5 km/h (1 Bft)
19.09.2013 17:15 11,9 C 64 % 1017,4 hPa 0,0 l/m 3,2 km/h (1 Bft) O 90 5,3 C 13,7 C 7,4 km/h (2 Bft)
19.09.2013 17:20 11,9 C 60 % 1017,1 hPa 0,0 l/m 4,5 km/h (1 Bft) SO 135 4,4 C 13,5 C 8,4 km/h (2 Bft)
19.09.2013 17:25 12,0 C 62 % 1017,1 hPa 0,0 l/m 5,6 km/h (1 Bft) S 180 4,9 C 13,5 C 4,0 km/h (1 Bft)
19.09.2013 17:30 12,1 C 62 % 1017,1 hPa 0,0 l/m 4,3 km/h (1 Bft) O 90 5,0 C 13,7 C 2,7 km/h (1 Bft)
19.09.2013 17:35 12,2 C 63 % 1017,1 hPa 0,0 l/m 3,1 km/h (1 Bft) SO 135 5,4 C 14,0 C 4,7 km/h (1 Bft)
19.09.2013 17:40 12,2 C 61 % 1016,9 hPa 0,0 l/m 1,9 km/h (1 Bft) S 180 4,9 C 14,0 C 0,0 km/h (0 Bft)
19.09.2013 17:45 12,0 C 62 % 1016,9 hPa 0,0 l/m 1,6 km/h (1 Bft) SO 135 4,9 C 14,3 C 4,0 km/h (1 Bft)
19.09.2013 17:50 11,8 C 63 % 1016,9 hPa 0,0 l/m 1,6 km/h (1 Bft) SO 135 5,0 C 15,0 C 2,7 km/h (1 Bft)
19.09.2013 17:55 11,0 C 62 % 1016,9 hPa 0,0 l/m 2,3 km/h (1 Bft) W 270 4,0 C 14,1 C 2,1 km/h (1 Bft)
19.09.2013 18:00 10,8 C 62 % 1016,8 hPa 0,0 l/m 1,4 km/h (1 Bft) W-SW 247 3,8 C 13,4 C 0,0 km/h (0 Bft)
19.09.2013 18:05 10,5 C 68 % 1016,8 hPa 0,0 l/m 0,8 km/h (0 Bft) O-SO 112 4,8 C 13,7 C 4,3 km/h (1 Bft)
19.09.2013 18:10 10,4 C 69 % 1016,8 hPa 0,0 l/m 0,5 km/h (0 Bft) O 90 5,0 C 13,9 C 0,0 km/h (0 Bft)
19.09.2013 18:15 10,2 C 69 % 1016,8 hPa 0,0 l/m 0,6 km/h (0 Bft) S-SO 157 4,8 C 14,4 C 0,0 km/h (0 Bft)
19.09.2013 18:20 10,1 C 69 % 1016,8 hPa 0,0 l/m 0,8 km/h (0 Bft) O-NO 67 4,7 C 14,3 C 1,6 km/h (1 Bft)
19.09.2013 18:25 9,5 C 71 % 1016,8 hPa 0,0 l/m 1,1 km/h (1 Bft) O-NO 67 4,5 C 14,0 C 2,3 km/h (1 Bft)
19.09.2013 18:30 9,5 C 72 % 1016,8 hPa 0,0 l/m 1,3 km/h (1 Bft) O 90 4,7 C 14,1 C 4,5 km/h (1 Bft)
19.09.2013 18:35 9,7 C 73 % 1016,8 hPa 0,0 l/m 1,3 km/h (1 Bft) O 90 5,1 C 14,1 C 1,8 km/h (1 Bft)
19.09.2013 18:40 9,7 C 73 % 1016,8 hPa 0,0 l/m 0,8 km/h (0 Bft) O 90 5,1 C 13,5 C 2,4 km/h (1 Bft)
19.09.2013 18:45 9,6 C 73 % 1016,8 hPa 0,0 l/m 0,8 km/h (0 Bft) S 180 5,0 C 12,3 C 0,0 km/h (0 Bft)
19.09.2013 18:50 9,7 C 72 % 1016,8 hPa 0,0 l/m 1,3 km/h (1 Bft) SW 225 4,9 C 11,6 C 2,6 km/h (1 Bft)
19.09.2013 18:55 9,4 C 72 % 1016,8 hPa 0,0 l/m 1,1 km/h (1 Bft) O 90 4,6 C 10,9 C 0,0 km/h (0 Bft)
19.09.2013 19:00 9,3 C 72 % 1016,9 hPa 0,0 l/m 1,1 km/h (1 Bft) O 90 4,5 C 10,6 C 1,9 km/h (1 Bft)
19.09.2013 19:05 9,0 C 73 % 1016,9 hPa 0,0 l/m 0,5 km/h (0 Bft) NO 45 4,4 C 10,2 C 1,6 km/h (1 Bft)
19.09.2013 19:10 9,0 C 74 % 1016,9 hPa 0,0 l/m 0,3 km/h (0 Bft) O 90 4,6 C 9,9 C 0,0 km/h (0 Bft)
19.09.2013 19:15 8,8 C 74 % 1016,9 hPa 0,0 l/m 0,2 km/h (0 Bft) O-NO 67 4,4 C 9,5 C 0,0 km/h (0 Bft)
19.09.2013 19:20 8,8 C 74 % 1017,0 hPa 0,0 l/m 0,2 km/h (0 Bft) O-NO 67 4,4 C 9,3 C 1,8 km/h (1 Bft)
19.09.2013 19:25 8,6 C 76 % 1017,0 hPa 0,0 l/m 0,8 km/h (0 Bft) O-NO 67 4,6 C 8,9 C 2,3 km/h (1 Bft)
19.09.2013 19:30 8,4 C 77 % 1017,0 hPa 0,0 l/m 1,6 km/h (1 Bft) O 90 4,6 C 8,7 C 3,1 km/h (1 Bft)
19.09.2013 19:35 8,2 C 78 % 1017,0 hPa 0,0 l/m 2,3 km/h (1 Bft) O 90 4,6 C 8,5 C 2,4 km/h (1 Bft)
19.09.2013 19:40 8,2 C 78 % 1017,1 hPa 0,0 l/m 1,9 km/h (1 Bft) O 90 4,6 C 8,4 C 2,4 km/h (1 Bft)
19.09.2013 19:45 8,1 C 79 % 1017,1 hPa 0,0 l/m 1,1 km/h (1 Bft) O-NO 67 4,7 C 8,2 C 2,3 km/h (1 Bft)
19.09.2013 19:50 8,2 C 79 % 1017,1 hPa 0,0 l/m 1,3 km/h (1 Bft) NO 45 4,8 C 8,1 C 0,0 km/h (0 Bft)
19.09.2013 19:55 8,1 C 79 % 1017,1 hPa 0,0 l/m 2,6 km/h (1 Bft) NO 45 4,7 C 8,1 C 2,9 km/h (1 Bft)
19.09.2013 20:00 8,1 C 79 % 1017,0 hPa 0,0 l/m 2,7 km/h (1 Bft) O 90 4,7 C 8,1 C 4,2 km/h (1 Bft)
19.09.2013 20:05 8,0 C 80 % 1017,0 hPa 0,0 l/m 2,7 km/h (1 Bft) O-SO 112 4,8 C 8,1 C 2,3 km/h (1 Bft)
19.09.2013 20:10 7,9 C 80 % 1017,0 hPa 0,0 l/m 2,1 km/h (1 Bft) NO 45 4,7 C 8,0 C 2,1 km/h (1 Bft)
19.09.2013 20:15 7,8 C 80 % 1017,0 hPa 0,0 l/m 0,6 km/h (0 Bft) O 90 4,6 C 7,8 C 0,0 km/h (0 Bft)
19.09.2013 20:20 7,7 C 80 % 1017,1 hPa 0,0 l/m 1,0 km/h (0 Bft) O 90 4,5 C 7,6 C 2,4 km/h (1 Bft)
19.09.2013 20:25 7,4 C 81 % 1017,1 hPa 0,0 l/m 1,8 km/h (1 Bft) O-NO 67 4,4 C 7,5 C 3,5 km/h (1 Bft)
19.09.2013 20:30 7,3 C 81 % 1017,1 hPa 0,0 l/m 2,1 km/h (1 Bft) O-SO 112 4,3 C 7,4 C 1,9 km/h (1 Bft)
19.09.2013 20:35 7,3 C 82 % 1017,1 hPa 0,0 l/m 1,6 km/h (1 Bft) O-NO 67 4,4 C 7,3 C 0,0 km/h (0 Bft)
19.09.2013 20:40 7,3 C 82 % 1017,2 hPa 0,0 l/m 1,3 km/h (1 Bft) O 90 4,4 C 7,3 C 0,0 km/h (0 Bft)
19.09.2013 20:45 7,4 C 82 % 1017,2 hPa 0,0 l/m 0,5 km/h (0 Bft) O-NO 67 4,5 C 7,3 C 0,0 km/h (0 Bft)
19.09.2013 20:50 7,4 C 81 % 1017,2 hPa 0,0 l/m 0,0 km/h (0 Bft) O-NO 67 4,4 C 7,3 C 0,0 km/h (0 Bft)
19.09.2013 20:55 7,5 C 82 % 1017,2 hPa 0,0 l/m 1,0 km/h (0 Bft) NO 45 4,6 C 7,3 C 2,7 km/h (1 Bft)
19.09.2013 21:00 7,5 C 82 % 1017,5 hPa 0,0 l/m 1,6 km/h (1 Bft) O 90 4,6 C 7,4 C 2,1 km/h (1 Bft)
19.09.2013 21:05 7,5 C 83 % 1017,5 hPa 0,0 l/m 1,9 km/h (1 Bft) O-NO 67 4,8 C 7,5 C 2,4 km/h (1 Bft)
19.09.2013 21:10 7,4 C 83 % 1017,5 hPa 0,0 l/m 2,1 km/h (1 Bft) O-NO 67 4,7 C 7,5 C 2,1 km/h (1 Bft)
19.09.2013 21:15 7,4 C 83 % 1017,5 hPa 0,0 l/m 1,1 km/h (1 Bft) N-NO 22 4,7 C 7,5 C 0,0 km/h (0 Bft)
19.09.2013 21:20 7,3 C 83 % 1017,6 hPa 0,0 l/m 0,2 km/h (0 Bft) O-NO 67 4,6 C 7,4 C 0,0 km/h (0 Bft)
19.09.2013 21:25 7,3 C 83 % 1017,6 hPa 0,0 l/m 1,0 km/h (0 Bft) O-NO 67 4,6 C 7,3 C 2,6 km/h (1 Bft)
19.09.2013 21:30 7,3 C 84 % 1017,6 hPa 0,0 l/m 1,4 km/h (1 Bft) O-NO 67 4,8 C 7,3 C 0,0 km/h (0 Bft)
19.09.2013 21:35 7,3 C 83 % 1017,6 hPa 0,0 l/m 0,8 km/h (0 Bft) O-SO 112 4,6 C 7,4 C 0,0 km/h (0 Bft)
19.09.2013 21:40 7,3 C 83 % 1017,7 hPa 0,0 l/m 0,3 km/h (0 Bft) O-SO 112 4,6 C 7,4 C 0,0 km/h (0 Bft)
19.09.2013 21:45 7,3 C 84 % 1017,7 hPa 0,0 l/m 0,2 km/h (0 Bft) SO 135 4,8 C 7,3 C 0,0 km/h (0 Bft)
19.09.2013 21:50 7,3 C 84 % 1017,7 hPa 0,0 l/m 0,3 km/h (0 Bft) O-SO 112 4,8 C 7,3 C 0,0 km/h (0 Bft)
19.09.2013 21:55 7,3 C 84 % 1017,7 hPa 0,0 l/m 0,3 km/h (0 Bft) NO 45 4,8 C 7,4 C 0,0 km/h (0 Bft)
19.09.2013 22:00 7,3 C 84 % 1017,6 hPa 0,0 l/m 0,0 km/h (0 Bft) NO 45 4,8 C 7,3 C 0,0 km/h (0 Bft)
19.09.2013 22:05 7,3 C 84 % 1017,6 hPa 0,0 l/m 0,0 km/h (0 Bft) N 360 4,8 C 7,4 C 0,0 km/h (0 Bft)
19.09.2013 22:10 7,3 C 84 % 1017,6 hPa 0,0 l/m 0,0 km/h (0 Bft) O-NO 67 4,8 C 7,4 C 0,0 km/h (0 Bft)
19.09.2013 22:15 7,3 C 85 % 1017,6 hPa 0,0 l/m 0,0 km/h (0 Bft) S 180 4,9 C 7,3 C 0,0 km/h (0 Bft)
19.09.2013 22:20 7,3 C 85 % 1017,6 hPa 0,0 l/m 0,0 km/h (0 Bft) S 180 4,9 C 7,3 C 0,0 km/h (0 Bft)
19.09.2013 22:25 7,3 C 85 % 1017,6 hPa 0,0 l/m 0,2 km/h (0 Bft) O-NO 67 4,9 C 7,3 C 3,9 km/h (1 Bft)
19.09.2013 22:30 7,4 C 85 % 1017,6 hPa 0,0 l/m 0,3 km/h (0 Bft) N-NW 337 5,0 C 7,4 C 0,0 km/h (0 Bft)
19.09.2013 22:35 7,4 C 85 % 1017,6 hPa 0,0 l/m 0,5 km/h (0 Bft) O 90 5,0 C 7,5 C 0,0 km/h (0 Bft)
19.09.2013 22:40 7,4 C 85 % 1017,4 hPa 0,0 l/m 0,2 km/h (0 Bft) W-SW 247 5,0 C 7,5 C 0,0 km/h (0 Bft)
19.09.2013 22:45 7,3 C 85 % 1017,4 hPa 0,0 l/m 0,0 km/h (0 Bft) NO 45 4,9 C 7,4 C 0,0 km/h (0 Bft)
19.09.2013 22:50 7,3 C 85 % 1017,4 hPa 0,0 l/m 0,0 km/h (0 Bft) O 90 4,9 C 7,4 C 0,0 km/h (0 Bft)
19.09.2013 22:55 7,3 C 85 % 1017,4 hPa 0,0 l/m 0,0 km/h (0 Bft) O-SO 112 4,9 C 7,4 C 0,0 km/h (0 Bft)
19.09.2013 23:00 7,4 C 85 % 1017,4 hPa 0,0 l/m 0,0 km/h (0 Bft) NO 45 5,0 C 7,4 C 0,0 km/h (0 Bft)
19.09.2013 23:05 7,4 C 85 % 1017,4 hPa 0,0 l/m 0,0 km/h (0 Bft) S 180 5,0 C 7,4 C 0,0 km/h (0 Bft)
19.09.2013 23:10 7,3 C 86 % 1017,4 hPa 0,0 l/m 0,0 km/h (0 Bft) W-SW 247 5,1 C 7,4 C 0,0 km/h (0 Bft)
19.09.2013 23:15 7,3 C 86 % 1017,4 hPa 0,0 l/m 0,2 km/h (0 Bft) S-SO 157 5,1 C 7,4 C 0,0 km/h (0 Bft)
19.09.2013 23:20 7,2 C 86 % 1017,6 hPa 0,0 l/m 0,2 km/h (0 Bft) S 180 5,0 C 7,3 C 0,0 km/h (0 Bft)
19.09.2013 23:25 7,2 C 86 % 1017,6 hPa 0,0 l/m 0,0 km/h (0 Bft) N-NO 22 5,0 C 7,3 C 0,0 km/h (0 Bft)
19.09.2013 23:30 7,1 C 86 % 1017,6 hPa 0,0 l/m 0,0 km/h (0 Bft) NO 45 4,9 C 7,2 C 0,0 km/h (0 Bft)
19.09.2013 23:35 6,9 C 87 % 1017,6 hPa 0,0 l/m 0,0 km/h (0 Bft) S 180 4,9 C 7,0 C 0,0 km/h (0 Bft)
19.09.2013 23:40 6,9 C 87 % 1017,8 hPa 0,0 l/m 0,0 km/h (0 Bft) O-NO 67 4,9 C 7,0 C 0,0 km/h (0 Bft)
19.09.2013 23:45 6,9 C 87 % 1017,8 hPa 0,0 l/m 0,0 km/h (0 Bft) O-SO 112 4,9 C 6,9 C 0,0 km/h (0 Bft)
19.09.2013 23:50 7,1 C 87 % 1017,8 hPa 0,0 l/m 0,2 km/h (0 Bft) O-NO 67 5,1 C 7,0 C 0,0 km/h (0 Bft)
19.09.2013 23:55 7,1 C 87 % 1017,8 hPa 0,0 l/m 0,2 km/h (0 Bft) O-SO 112 5,1 C 7,1 C 0,0 km/h (0 Bft)
_ Min-Zeit 08:40 16:40 00:15 - 23:45 - - 18:00 08:25 23:55
Minimum _ 6,4 C 56 % 1008,2 hPa - 0,0 km/h (0 Bft) - - 3,8 C 6,0 C 0,0 km/h (0 Bft)
_ Max-Zeit 14:30 10:50 14:15 00:25 00:20 - - 11:00 16:15 00:15
Maximum _ 13,8 C 96 % 1018,1 hPa 2,1 l/m 10,6 km/h
S (2 Bft)
- - 10,7 C 17,0 C 25,4 km/h
W-SW (4 Bft)
Durchschnitt _ 9,1 C 85 % 1015,2 hPa #28,9 l/m 3,5 km/h (1 Bft) S - 6,5 C 9,7 C 4,3 km/h (1 Bft)